DW4152 Weather Reports


Display with metric or nautical units.
time (UTC)temp
F
wind
direction
speed
MPH
gust
MPH
rain 1hr
in
rain 24hr
in
rain mn
in
humidity
%
barometer
mb
20260504044534 46 229 0.0 0.0 0.00 0.00 0.00 81 1016.7
20260504043037 47 229 0.0 0.0 0.00 0.00 0.00 80 1016.7
20260504041523 47 229 0.0 0.0 0.00 0.00 0.00 79 1016.6
20260504040023 48 229 0.0 0.0 0.00 0.00 0.00 80 1016.8
20260504034520 49 229 0.0 0.0 0.00 0.00 0.00 80 1016.8
20260504033019 49 229 0.0 0.0 0.00 0.00 0.00 79 1016.6
20260504031520 49 229 0.0 0.0 0.00 0.00 0.00 76 1016.7
20260504030019 50 229 0.0 0.0 0.00 0.00 0.00 74 1016.7
20260504024519 50 229 0.0 0.0 0.00 0.00 0.00 74 1016.5
20260504023018 51 229 0.0 0.0 0.00 0.00 0.00 78 1016.5
20260504021519 52 229 0.0 0.0 0.00 0.00 0.00 75 1016.4
20260504020017 52 229 0.0 0.0 0.00 0.00 0.00 74 1016.1
20260504014517 53 229 0.0 0.0 0.00 0.00 0.00 72 1016.1
20260504013019 53 229 0.0 0.0 0.00 0.00 0.00 69 1016.1
20260504011516 54 229 0.0 0.0 0.00 0.00 0.00 64 1016.1
20260504010014 55 229 0.0 0.0 0.00 0.00 0.00 63 1016.0
20260504004518 56 229 0.0 0.0 0.00 0.00 0.00 54 1015.8
20260504003013 57 229 0.0 0.0 0.00 0.00 0.00 52 1015.6
20260504001513 58 229 0.0 0.0 0.00 0.00 0.00 49 1015.5
20260504000013 59 229 0.0 0.0 0.00 0.00 0.00 46 1015.4
20260503234517 61 229 0.0 0.0 0.00 0.00 0.00 42 1015.4
20260503233011 62 229 0.0 1.0 0.00 0.00 0.00 39 1015.4
20260503231511 63 229 0.0 4.0 0.00 0.00 0.00 36 1015.3
20260503230011 65 227 0.0 0.0 0.00 0.00 0.00 35 1015.4
20260503224512 65 237 0.0 0.0 0.00 0.00 0.00 31 1015.5
20260503223009 66 199 0.0 3.0 0.00 0.00 0.00 31 1015.6
20260503221508 66 205 0.0 3.0 0.00 0.00 0.00 31 1015.8
20260503220008 66 176 0.0 6.0 0.00 0.00 0.00 31 1015.8
20260503214529 67 186 0.0 4.0 0.00 0.00 0.00 30 1015.8
20260503213007 68 221 0.0 1.0 0.00 0.00 0.00 30 1015.9
20260503211507 67 205 0.0 3.0 0.00 0.00 0.00 30 1016.2
20260503210006 67 275 0.0 6.0 0.00 0.00 0.00 29 1016.1
20260503204506 67 104 0.0 2.0 0.00 0.00 0.00 30 1016.1
20260503203004 67 241 0.0 8.0 0.00 0.00 0.00 29 1016.3
20260503201506 68 209 1.0 6.0 0.00 0.00 0.00 28 1016.6
20260503200003 69 140 0.0 4.0 0.00 0.00 0.00 32 1016.7
20260503194605 68 305 0.0 7.0 0.00 0.00 0.00 29 1016.9
20260503193105 68 85 0.0 2.0 0.00 0.00 0.00 31 1016.9
20260503191606 68 227 0.0 4.0 0.00 0.00 0.00 32 1017.2
20260503190100 66 203 0.0 3.0 0.00 0.00 0.00 32 1017.5
20260503184605 66 211 1.0 6.0 0.00 0.00 0.00 33 1017.7
20260503183050 65 235 1.0 7.0 0.00 0.00 0.00 34 1017.9
20260503181608 64 228 0.0 4.0 0.00 0.00 0.00 35 1018.3
20260503180106 63 228 0.0 6.0 0.00 0.00 0.00 35 1018.4
20260503174554 64 157 0.0 12.0 0.00 0.00 0.00 37 1018.5
20260503173053 63 74 0.0 5.0 0.00 0.00 0.00 39 1018.6
20260503171539 62 196 1.0 5.0 0.00 0.00 0.00 42 1018.7
20260503081517 40 45 0.0 0.0 0.00 0.00 0.00 86 1016.3